SKYSAT-C17 (46179 NORAD) Tracking and Keplerian Element Data

This shows tracking and keplerian element data for the satellite.

Feedback or suggestion? Click here.




ElementValue
Catalog46179
NameSKYSAT-C17
Epoch Orbit658
Epoch Day267.45053247
Epoch Year2020
RAAN262.5351
Inclination53.0001
Eccentricity0.0012631
Argument of Perigee72.3854
Mean Anonmoly287.8541
Mean Motion15.70843735
Decay Rate0.00011267
L11 46179U 20057BQ 20267.45053247 .00011267 00000-0 93000-4 0 9991
L22 46179 53.0001 262.5351 0012631 72.3854 287.8541 15.70843735 6581

Live tracking and technical data element details for SKYSAT-C17 (NORAD 46179). SKYSAT-C17 can be tracked NOW for your location showing map with azimuth and elevation plus other details from your city location.

Track the satellite on the map from your city or location and see movement details for azimuth, elevation, latitude, longitude, range, height, and movement on the map or in text.







IsCatalogInMostPopularTable: catalog: 46179, numindb: 4
Update: records affected: 1



GetName: 46179 SKYSAT-C17

Hit Count: updated at: Thu, 24 Sep 2020 18:13:29 GMT